�N����,����,����,����,����,�C��,���x,�~����,�S�V����,�ő�u�ԕ���,,,
,,,,,,,,,����,����,����,�N��
yyyy/mm/dd,hh:mm:ss,(16),16����,m/s,��,%,mm,KW/�u,(16),16����,m/s,Time
2015/1/1,1:00:00,13,���k��,2.4,-7.7,95.7,0,0,13,���k��,4,59
2015/1/1,2:00:00,13,���k��,1.8,-8.1,95,0,0,14,�k��,7.5,24
2015/1/1,3:00:00,13,���k��,3.8,-6.9,95.6,0,0,5,���쓌,6.3,37
2015/1/1,4:00:00,13,���k��,3.8,-6.7,94.8,0,0,14,�k��,6.2,48
2015/1/1,5:00:00,13,���k��,1.9,-6.3,92.8,0,0,14,�k��,8.6,31
2015/1/1,6:00:00,13,���k��,3.8,-6.5,89.8,0,0,14,�k��,6,51
2015/1/1,7:00:00,13,���k��,4.4,-6.6,88.3,0,0,14,�k��,7.8,45
2015/1/1,8:00:00,14,�k��,4.8,-6.6,92.2,0,0.02,14,�k��,8.2,45
2015/1/1,9:00:00,13,���k��,4.6,-6.2,90.7,0,0.1,14,�k��,8.3,54
2015/1/1,10:00:00,13,���k��,5.3,-5.9,82.2,0,0.19,13,���k��,8.6,56
2015/1/1,11:00:00,13,���k��,4.5,-5.2,76.1,0,0.25,14,�k��,8.2,11
2015/1/1,12:00:00,14,�k��,4.2,-4.7,71.6,0,0.31,13,���k��,7.5,25
2015/1/1,13:00:00,14,�k��,4.1,-4,62.7,0,0.46,14,�k��,7.4,45
2015/1/1,14:00:00,13,���k��,2.8,-3.6,62,0,0.37,12,��,6.6,34
2015/1/1,15:00:00,14,�k��,3.1,-4.1,62.3,0,0.23,14,�k��,6.5,8
2015/1/1,16:00:00,13,���k��,2.3,-5.6,66.7,0,0.07,16,�k,6.5,1
2015/1/1,17:00:00,12,��,2.3,-8.1,75.4,0,0.01,5,���쓌,3.8,4
2015/1/1,18:00:00,13,���k��,2.8,-6.8,71.7,0,0,13,���k��,4.6,51
2015/1/1,19:00:00,13,���k��,2.2,-8.5,80.2,0,0,14,�k��,5.4,12
2015/1/1,20:00:00,13,���k��,1.9,-11.8,84.3,0,0,12,��,4.4,4
2015/1/1,21:00:00,13,���k��,2,-13.3,87.6,0,0,13,���k��,3.5,32
2015/1/1,22:00:00,12,��,2.1,-13.5,89.1,0,0,13,���k��,3.6,20
2015/1/1,23:00:00,13,���k��,2.3,-13.2,83.5,0,0,12,��,3.8,10
2015/1/1,0:00:00,12,��,2,-14,91.5,0,0,13,���k��,3.4,7
2015/1/2,1:00:00,13,���k��,1.4,-15.4,91.9,0,0,12,��,3.1,40
2015/1/2,2:00:00,13,���k��,2.1,-15.8,90.5,0,0,13,���k��,2.9,50
2015/1/2,3:00:00,12,��,2.6,-15.6,85.7,0,0,13,���k��,4.5,46
2015/1/2,4:00:00,12,��,2.8,-14.5,92,0,0,12,��,3.9,55
2015/1/2,5:00:00,12,��,2.6,-15,90,0,0,12,��,3.9,56
2015/1/2,6:00:00,12,��,2.5,-15.4,89.5,0,0,13,���k��,4.4,43
2015/1/2,7:00:00,13,���k��,2.7,-15.5,89.5,0,0.01,12,��,4.1,33
2015/1/2,8:00:00,13,���k��,1.7,-13.5,86.3,0,0.09,13,���k��,3.7,12
2015/1/2,9:00:00,12,��,1.7,-11.6,78.6,0,0.25,13,���k��,3.1,0
2015/1/2,10:00:00,12,��,0.8,-8.3,71.3,0,0.39,9,��쐼,3,37
2015/1/2,11:00:00,13,���k��,1,-5.5,66.6,0,0.49,8,��,3.1,44
2015/1/2,12:00:00,10,�쐼,0.3,-3.6,57.3,0,0.52,12,��,1.4,10
2015/1/2,13:00:00,10,�쐼,0.9,-2.8,60.6,0,0.49,7,��쓌,1.8,45
2015/1/2,14:00:00,9,��쐼,1.6,-3.1,57.8,0,0.39,9,��쐼,2.8,52
2015/1/2,15:00:00,11,���쐼,1,-4,58.5,0,0.25,10,�쐼,2.4,48
2015/1/2,16:00:00,11,�É�,0,-5.4,71.3,0,0.06,9,��쐼,1.5,38
2015/1/2,17:00:00,12,��,1.2,-7.8,82.9,0,0,12,��,1.9,56
2015/1/2,18:00:00,12,��,2.5,-11.6,83.1,0,0,12,��,3.2,46
2015/1/2,19:00:00,13,���k��,1.9,-11.2,77.9,0,0,13,���k��,3.1,54
2015/1/2,20:00:00,13,���k��,1.7,-12.9,83.8,0,0,12,��,3.5,38
2015/1/2,21:00:00,12,��,2.1,-13.8,85.7,0,0,12,��,3.9,59
2015/1/2,22:00:00,12,��,0.9,-14,82.2,0,0,11,���쐼,4.3,28
2015/1/2,23:00:00,13,���k��,2.5,-14.8,83.7,0,0,12,��,4.1,17
2015/1/2,0:00:00,12,��,3.3,-15.4,83.1,0,0,11,���쐼,4.8,50
2015/1/3,1:00:00,13,���k��,1.3,-17.2,84.5,0,0,12,��,5.7,19
2015/1/3,2:00:00,12,��,1.9,-16.5,82.2,0,0,12,��,3.2,58
2015/1/3,3:00:00,13,���k��,2.5,-15.5,86.9,0,0,14,�k��,4.1,15
2015/1/3,4:00:00,12,��,2.4,-16.7,84.6,0,0,12,��,3.4,29
2015/1/3,5:00:00,16,�k,1.4,-16.3,83.5,0,0,12,��,3.8,33
2015/1/3,6:00:00,13,���k��,1.8,-16.1,82,0,0,12,��,4.9,20
2015/1/3,7:00:00,12,��,1.9,-17.9,84.1,0,0,11,���쐼,3.7,48
2015/1/3,8:00:00,14,�k��,0.9,-16.4,77.3,0,0.09,1,�k�k��,23.7,51
2015/1/3,9:00:00,13,���k��,1,-12.4,73.2,0,0.26,12,��,3.5,18
2015/1/3,10:00:00,13,���k��,0.8,-9,65.6,0,0.4,13,���k��,2.6,14
2015/1/3,11:00:00,2,�É�,0.1,-5,50.7,0,0.49,13,���k��,1.7,10
2015/1/3,12:00:00,4,��,0.6,-2,57.6,0,0.52,4,��,1.5,40
2015/1/3,13:00:00,5,���쓌,1.6,-1.3,51.4,0,0.49,6,�쓌,2.9,37
2015/1/3,14:00:00,14,�k��,3,-2.8,39.5,0,0.36,13,���k��,4.8,53
2015/1/3,15:00:00,14,�k��,1.6,-3.8,43.3,0,0.22,14,�k��,4.2,7
2015/1/3,16:00:00,14,�k��,1.1,-6.1,47.8,0,0.08,3,���k��,2.5,30
2015/1/3,17:00:00,12,��,1.5,-7.3,53.8,0,0,11,���쐼,3.7,26
2015/1/3,18:00:00,12,��,0.6,-10.5,71.4,0,0,15,�k�k��,3.6,48
2015/1/3,19:00:00,12,��,0.6,-12.2,75.7,0,0,14,�k��,3,7
2015/1/3,20:00:00,12,��,1.3,-13.6,77.7,0,0,12,��,2.1,20
2015/1/3,21:00:00,12,��,2.2,-14.9,83,0,0,12,��,3.3,59
2015/1/3,22:00:00,12,��,2.5,-15.6,85.2,0,0,12,��,3.9,34
2015/1/3,23:00:00,12,��,1.9,-15.7,88.4,0,0,14,�k��,3.8,13
2015/1/3,0:00:00,12,��,1.4,-15.4,91.1,0,0,12,��,2.9,43
2015/1/4,1:00:00,13,���k��,2.1,-14.9,92.6,0,0,10,�쐼,4.2,15
2015/1/4,2:00:00,12,��,2,-16.1,89.7,0,0,12,��,3.8,26
2015/1/4,3:00:00,13,���k��,2.3,-15.5,89,0,0,12,��,4.3,16
2015/1/4,4:00:00,12,��,3.5,-17.2,87,0,0,12,��,4.4,53
2015/1/4,5:00:00,12,��,2.9,-16.7,88.2,0,0,10,�쐼,3.9,43
2015/1/4,6:00:00,12,��,4,-16.6,88.3,0,0,11,���쐼,4.9,56
2015/1/4,7:00:00,12,��,2.5,-15.5,88.8,0,0,13,���k��,5.2,18
2015/1/4,8:00:00,12,��,2.5,-14.9,83.5,0,0.08,13,���k��,4.7,36
2015/1/4,9:00:00,13,���k��,2.6,-11.2,78.1,0,0.25,13,���k��,3.8,14
2015/1/4,10:00:00,14,�k��,0.6,-7,65.9,0,0.4,8,��,3,29
2015/1/4,11:00:00,3,���k��,1,-0.9,70.8,0,0.49,14,�k��,4,9
2015/1/4,12:00:00,4,��,3,-0.8,70.5,0,0.51,4,��,4.5,44
2015/1/4,13:00:00,3,���k��,2.5,-1.3,67,0,0.48,4,��,5,8
2015/1/4,14:00:00,3,���k��,2.5,-1.9,65.7,0,0.38,4,��,4.2,1
2015/1/4,15:00:00,2,�k��,1.3,-1.7,68.3,0,0.24,3,���k��,3.6,1
2015/1/4,16:00:00,1,�k�k��,0.9,-5.4,74.3,0,0.08,2,�k��,2.1,11
2015/1/4,17:00:00,13,���k��,1.7,-5.7,74.5,0,0,13,���k��,2.3,56
2015/1/4,18:00:00,12,��,2,-7.6,75.6,0,0,13,���k��,2.7,56
2015/1/4,19:00:00,13,���k��,2.1,-9,79,0,0,16,�k,3,50
2015/1/4,20:00:00,12,��,2.5,-10.3,83.2,0,0,12,��,3.6,59
2015/1/4,21:00:00,11,���쐼,1.4,-11.2,86.8,0,0,11,���쐼,3,1
2015/1/4,22:00:00,14,�k��,2.3,-8.8,80.1,0,0,14,�k��,4.5,54
2015/1/4,23:00:00,13,���k��,2.9,-8.4,75.9,0,0,13,���k��,4.4,21
2015/1/4,0:00:00,13,���k��,2.1,-10.1,75.5,0,0,13,���k��,4.6,44
2015/1/5,1:00:00,12,��,1.6,-12.4,84.3,0,0,13,���k��,3.8,29
2015/1/5,2:00:00,13,���k��,2.7,-9.9,85.2,0,0,5,���쓌,4.3,58
2015/1/5,3:00:00,13,���k��,2.5,-10.6,84.1,0,0,13,���k��,4.4,1
2015/1/5,4:00:00,12,��,2,-13.6,90.4,0,0,14,�k��,3.5,3
2015/1/5,5:00:00,12,��,1.2,-13.7,90,0,0,12,��,3.5,18
2015/1/5,6:00:00,12,��,1.7,-11.7,85.8,0,0,16,�k,3,46
2015/1/5,7:00:00,12,��,3.1,-13,89.6,0,0,12,��,3.6,58
2015/1/5,8:00:00,12,��,1.9,-11.1,82.1,0,0.07,12,��,4.5,20
2015/1/5,9:00:00,13,���k��,2.4,-8.2,71.6,0,0.25,12,��,3.8,43
2015/1/5,10:00:00,12,��,1.8,-6.1,67.8,0,0.39,14,�k��,4.3,7
2015/1/5,11:00:00,12,��,1.6,-3.4,58.4,0,0.48,12,��,2.6,43
2015/1/5,12:00:00,10,�쐼,1.8,-2.1,56.4,0,0.51,9,��쐼,3.5,32
2015/1/5,13:00:00,10,�쐼,2.1,-1.6,54.2,0,0.48,8,��,3.2,32
2015/1/5,14:00:00,9,��쐼,2.1,-1.4,54.8,0,0.39,10,�쐼,3.7,5
2015/1/5,15:00:00,8,��,1.8,-1.4,58.3,0,0.25,7,��쓌,4,37
2015/1/5,16:00:00,9,��쐼,0.6,-3.5,73.3,0,0.09,10,�쐼,3,16
2015/1/5,17:00:00,12,��,0.7,-5.8,86.4,0,0,8,��,1.4,10
2015/1/5,18:00:00,12,��,1.2,-8.3,89.7,0,0,11,���쐼,2,54
2015/1/5,19:00:00,13,���k��,1.9,-8.3,86,0,0,1,�k�k��,2.5,55
2015/1/5,20:00:00,13,���k��,1.7,-8.5,86.2,0,0,13,���k��,3.2,34
2015/1/5,21:00:00,12,��,2.5,-9.2,90.4,0,0,12,��,4,35
2015/1/5,22:00:00,13,���k��,2,-9.2,91.9,0,0,2,�k��,4,8
2015/1/5,23:00:00,12,��,2.5,-8.6,89.3,0,0,16,�k,4.4,46
2015/1/5,0:00:00,13,���k��,1.3,-8.9,91.8,0,0,13,���k��,3.3,0
2015/1/6,1:00:00,13,���k��,1.3,-8.1,90.8,0,0,13,���k��,3.5,46
2015/1/6,2:00:00,12,��,1.7,-7.7,85.2,0,0,7,��쓌,4.4,28
2015/1/6,3:00:00,12,��,3.4,-7.8,81.1,0,0,3,���k��,5.2,52
2015/1/6,4:00:00,11,���쐼,2,-8.1,81,0,0,11,���쐼,3.8,49
2015/1/6,5:00:00,14,�k��,1.6,-7.2,76.2,0,0,11,���쐼,3.6,14
2015/1/6,6:00:00,12,��,1.3,-7.1,79.5,0,0,13,���k��,4.2,31
2015/1/6,7:00:00,14,�k��,2.1,-6.1,77.7,0,0,9,��쐼,3.7,49
2015/1/6,8:00:00,14,�k��,0.9,-5.3,78.8,0,0.03,13,���k��,4.9,26
2015/1/6,9:00:00,14,�k��,1.1,-5.6,90.2,0,0.04,11,���쐼,2.8,37
2015/1/6,10:00:00,14,�k��,2.3,-5,93.2,0,0.05,13,���k��,3.9,19
2015/1/6,11:00:00,14,�k��,2.6,-4.2,92.6,0,0.09,13,���k��,4.4,52
2015/1/6,12:00:00,15,�k�k��,1.6,-3.4,94.7,0,0.1,2,�k��,4.6,42
2015/1/6,13:00:00,14,�k��,2.2,-3.1,94.9,0.5,0.09,13,���k��,6.1,35
2015/1/6,14:00:00,13,���k��,1.8,-2.4,96.6,0,0.06,14,�k��,4,3
2015/1/6,15:00:00,14,�k��,1.7,-1.5,96.9,1.5,0.04,16,�k,4.2,40
2015/1/6,16:00:00,13,�É�,0.1,-0.9,98.8,2.5,0.01,2,�k��,2.5,28
2015/1/6,17:00:00,13,�É�,0,-0.3,99.2,1,0,14,�É�,0,0
2015/1/6,18:00:00,12,�É�,0,0.1,99.1,1,0,13,�É�,0,0
2015/1/6,19:00:00,13,�É�,0,-0.6,97.2,0,0,6,�É�,0,0
2015/1/6,20:00:00,14,�É�,0,-0.8,95.4,0,0,15,�É�,0,0
2015/1/6,21:00:00,15,�É�,0,-0.3,92.8,0,0,15,�É�,0,0
2015/1/6,22:00:00,12,�É�,0,0.9,81.5,0,0,12,�É�,0,0
2015/1/6,23:00:00,11,�É�,0,-1,71.3,0,0,11,�É�,0,0
2015/1/6,0:00:00,11,�É�,0,-2.7,70.8,0,0,12,�É�,0,0
2015/1/7,1:00:00,11,�É�,0,-3.4,59.9,0,0,11,�É�,0,0
2015/1/7,2:00:00,11,�É�,0,-5.1,66.6,0,0,11,�É�,0,0
2015/1/7,3:00:00,11,�É�,0,-4.8,69.8,0,0,11,�É�,0,0
2015/1/7,4:00:00,10,�É�,0,-5.5,78.6,0,0,11,�É�,0,0
2015/1/7,5:00:00,11,�É�,0,-5.7,69.1,0,0,11,�É�,0,0
2015/1/7,6:00:00,11,�É�,0,-6.2,63,0,0,11,�É�,0,0
2015/1/7,7:00:00,11,�É�,0,-6.8,63.7,0,0.01,12,�É�,0,0
2015/1/7,8:00:00,11,�É�,0,-6.9,58.8,0,0.08,10,�É�,0,0
2015/1/7,9:00:00,11,�É�,0,-6.8,61.4,0,0.28,10,�É�,0,0
2015/1/7,10:00:00,11,�É�,0,-6.6,64.3,0,0.36,11,�É�,0,0
2015/1/7,11:00:00,11,�É�,0,-5.6,52.4,0,0.54,12,�É�,0,0
2015/1/7,12:00:00,11,�É�,0,-5,50.5,0,0.5,11,�É�,0,0
2015/1/7,13:00:00,10,�É�,0,-4.7,56.1,0,0.46,10,�É�,0,0
2015/1/7,14:00:00,10,�É�,0,-4.5,66.7,0,0.31,10,�É�,0,0
2015/1/7,15:00:00,8,�É�,0,-4.4,80.8,0,0.09,8,�É�,0,0
2015/1/7,16:00:00,10,�É�,0,-3.5,81.8,0,0.05,10,�É�,0,0
2015/1/7,17:00:00,11,���쐼,4.8,-2.4,77.5,0,0.01,11,���쐼,8.8,59
2015/1/7,18:00:00,11,���쐼,4.3,-1.4,82.9,0,0,11,���쐼,10,19
2015/1/7,19:00:00,12,��,2.4,-1.2,79,0,0,12,��,7.8,29
2015/1/7,20:00:00,14,�k��,1.3,-0.6,78.6,0,0,12,��,5.1,20
2015/1/7,21:00:00,12,��,3.5,-0.7,80.7,0,0,4,��,6.1,53
2015/1/7,22:00:00,12,��,1.9,-1.6,78.2,0,0,13,���k��,6.6,13
2015/1/7,23:00:00,13,���k��,1.1,-2.7,76.2,0,0,12,��,3.9,19
2015/1/7,0:00:00,12,��,3.7,-1.6,69,0,0,13,���k��,7.1,41
2015/1/8,1:00:00,15,�k�k��,3.1,-1,77.5,0,0,12,��,7.3,59
2015/1/8,2:00:00,15,�k�k��,3.7,-0.9,81.6,0,0,15,�k�k��,7.6,58
2015/1/8,3:00:00,14,�k��,7.7,0.9,65,0,0,15,�k�k��,13.4,59
2015/1/8,4:00:00,14,�k��,5.8,1.2,61.1,0,0,15,�k�k��,13.9,31
2015/1/8,5:00:00,13,���k��,6.2,1,62.7,0,0,13,���k��,13.5,22
2015/1/8,6:00:00,14,�k��,5.8,1.1,63.4,0,0,14,�k��,11.4,51
2015/1/8,7:00:00,13,���k��,3.4,-0.9,72,0,0.01,14,�k��,11.9,6
2015/1/8,8:00:00,12,��,3.4,0.6,67.1,0,0.09,12,��,5.4,53
2015/1/8,9:00:00,12,��,4.7,2.3,50.9,0,0.24,11,���쐼,9.3,36
2015/1/8,10:00:00,9,��쐼,1.1,1.2,64.6,0,0.31,13,���k��,8.2,6
2015/1/8,11:00:00,13,���k��,1.4,3.8,49.9,0,0.47,10,�쐼,4,55
2015/1/8,12:00:00,14,�k��,5.7,3.8,46.5,0,0.53,14,�k��,11.3,45
2015/1/8,13:00:00,13,���k��,5.9,3.9,44.6,0,0.51,13,���k��,12.1,49
2015/1/8,14:00:00,14,�k��,5.2,3.8,45.3,0,0.4,2,�k��,12.1,9
2015/1/8,15:00:00,13,���k��,3,3.4,50.9,0,0.17,14,�k��,8.1,22
2015/1/8,16:00:00,13,���k��,5.5,2.4,56.8,0,0.07,13,���k��,10.2,53
2015/1/8,17:00:00,13,���k��,3.8,1.9,55.4,0,0.01,12,��,7.6,11
2015/1/8,18:00:00,14,�k��,2,1.3,57.5,0,0,13,���k��,6.8,6
2015/1/8,19:00:00,14,�k��,1.9,0.7,62.7,0,0,13,���k��,4.4,51
2015/1/8,20:00:00,14,�k��,4.8,0.9,63,0,0,14,�k��,7.8,54
2015/1/8,21:00:00,14,�k��,3.5,0.5,64.1,0,0,14,�k��,9.7,3
2015/1/8,22:00:00,15,�k�k��,3.7,-0.1,65.5,0,0,15,�k�k��,6.5,56
2015/1/8,23:00:00,15,�k�k��,2.3,-0.4,67.1,0,0,15,�k�k��,6.4,6
2015/1/8,0:00:00,15,�k�k��,2.4,-0.9,66.3,0,0,15,�k�k��,4.6,49
2015/1/9,1:00:00,14,�k��,3.5,-0.3,65.3,0,0,1,�k�k��,6.9,39
2015/1/9,2:00:00,14,�k��,3,-0.3,62.7,0,0,15,�k�k��,7.4,13
2015/1/9,3:00:00,13,���k��,5.5,0.9,55.4,0,0,13,���k��,8.7,56
2015/1/9,4:00:00,15,�k�k��,4.2,0.5,57.6,0,0,14,�k��,9.9,4
2015/1/9,5:00:00,14,�k��,3.7,-0.1,61.5,0,0,14,�k��,9.2,29
2015/1/9,6:00:00,14,�k��,4.4,-0.1,61.6,0,0,14,�k��,9.5,30
2015/1/9,7:00:00,14,�k��,4,-0.5,62.1,0,0.01,14,�k��,8.3,32
2015/1/9,8:00:00,14,�k��,3.3,-0.1,59.5,0,0.09,13,���k��,7.4,59
2015/1/9,9:00:00,14,�k��,5.9,1.1,53.6,0,0.25,14,�k��,9.6,59
2015/1/9,10:00:00,14,�k��,4.7,2.2,47.6,0,0.4,14,�k��,9.8,9
2015/1/9,11:00:00,14,�k��,6.5,2.5,41.9,0,0.5,12,��,11.7,42
2015/1/9,12:00:00,14,�k��,7,2.8,39.1,0,0.54,14,�k��,13.3,12
2015/1/9,13:00:00,15,�k�k��,6.1,2.8,44.4,0,0.5,15,�k�k��,12.5,44
2015/1/9,14:00:00,14,�k��,5.5,2.4,46.9,0,0.4,14,�k��,11.7,25
2015/1/9,15:00:00,16,�k,5,1.3,57.3,0,0.12,15,�k�k��,9.3,17
2015/1/9,16:00:00,15,�k�k��,4.3,0.9,57.8,0,0.09,1,�k�k��,8.4,9
2015/1/9,17:00:00,15,�k�k��,3.8,0.4,58.5,0,0.01,14,�k��,7.4,3
2015/1/9,18:00:00,14,�k��,2.9,-0.2,61.4,0,0,14,�k��,6.9,3
2015/1/9,19:00:00,14,�k��,2.2,-0.9,62.5,0,0,14,�k��,6.5,2
2015/1/9,20:00:00,12,��,2,-3.5,70.8,0,0,14,�k��,3.3,6
2015/1/9,21:00:00,13,���k��,1.6,-4.4,72.6,0,0,16,�k,2.5,38
2015/1/9,22:00:00,12,��,2.4,-6.1,70.9,0,0,13,���k��,3,52
2015/1/9,23:00:00,12,��,2.4,-5.9,75.9,0,0,11,���쐼,3.7,34
2015/1/9,0:00:00,12,��,1.8,-5.2,75.2,0,0,13,���k��,3.3,26
2015/1/10,1:00:00,11,���쐼,0.8,-8.5,80.5,0,0,2,�k��,2.3,43
2015/1/10,2:00:00,11,���쐼,0.6,-9.5,89.4,0,0,11,���쐼,2.3,31
2015/1/10,3:00:00,13,���k��,1.7,-8,87.3,0,0,11,���쐼,2.5,28
2015/1/10,4:00:00,12,��,1.9,-8.8,92.8,0,0,12,��,3.7,46
2015/1/10,5:00:00,11,���쐼,2.2,-9.1,91.6,0,0,12,��,4.1,37
2015/1/10,6:00:00,12,��,3.5,-9.3,93.6,0,0,12,��,4.5,58
2015/1/10,7:00:00,13,���k��,1.3,-8.8,89.3,0,0.01,13,���k��,5,26
2015/1/10,8:00:00,12,��,2,-8,80.9,0,0.08,11,���쐼,4,43
2015/1/10,9:00:00,10,�쐼,1.7,-5.8,73.8,0,0.26,3,���k��,3.4,1
2015/1/10,10:00:00,15,�k�k��,0.3,-1.5,62.6,0,0.4,12,��,2.7,11
2015/1/10,11:00:00,14,�k��,3.1,0.8,44.1,0,0.5,14,�k��,5.3,48
2015/1/10,12:00:00,14,�k��,2.8,0.6,52.6,0,0.46,14,�k��,6.4,23
2015/1/10,13:00:00,15,�k�k��,3,1.4,48,0,0.48,15,�k�k��,6.9,26
2015/1/10,14:00:00,14,�k��,3.9,1.4,45.1,0,0.42,14,�k��,7.7,20
2015/1/10,15:00:00,14,�k��,2.5,1.1,47.1,0,0.28,14,�k��,6.3,12
2015/1/10,16:00:00,14,�k��,2.4,0.3,50.1,0,0.11,15,�k�k��,5.3,22
2015/1/10,17:00:00,14,�k��,2.5,-1,55.1,0,0.01,13,���k��,5.9,46
2015/1/10,18:00:00,11,���쐼,1.9,-2.7,61.2,0,0,15,�k�k��,4.6,18
2015/1/10,19:00:00,14,�k��,2.1,-2.9,59.2,0,0,13,���k��,3.9,25
2015/1/10,20:00:00,14,�k��,1.4,-6.3,72.9,0,0,13,���k��,3.6,47
2015/1/10,21:00:00,14,�k��,1.8,-8,78.8,0,0,1,�k�k��,2.7,53
2015/1/10,22:00:00,14,�k��,1.7,-8,77.7,0,0,15,�k�k��,4.1,10
2015/1/10,23:00:00,12,��,1.8,-9.4,86,0,0,13,���k��,3.4,19
2015/1/10,0:00:00,12,��,2.1,-9.6,78.8,0,0,12,��,2.7,39
2015/1/11,1:00:00,12,��,3,-9.7,79.4,0,0,11,���쐼,3.9,49
2015/1/11,2:00:00,12,��,2.3,-10.5,81,0,0,11,���쐼,3.7,9
2015/1/11,3:00:00,12,��,2.9,-11.2,82.5,0,0,12,��,3.6,48
2015/1/11,4:00:00,13,���k��,1.2,-10.3,84.2,0,0,12,��,4.1,28
2015/1/11,5:00:00,12,��,2.4,-9.8,84.6,0,0,12,��,3.3,39
2015/1/11,6:00:00,12,��,1.8,-8.8,84.9,0,0,12,��,3,23
2015/1/11,7:00:00,12,��,1.8,-8.3,86.4,0,0,12,��,2.8,35
2015/1/11,8:00:00,12,��,1.9,-7.4,84.1,0,0.03,11,���쐼,3,29
2015/1/11,9:00:00,12,��,1.7,-6,79.7,0,0.1,12,��,2.5,38
2015/1/11,10:00:00,11,�É�,0.2,-4.6,77.6,0,0.16,10,�쐼,3.2,46
2015/1/11,11:00:00,13,���k��,1.1,-2.5,72.6,0,0.21,12,��,1.8,14
2015/1/11,12:00:00,13,���k��,0.8,0.4,60.2,0,0.29,14,�k��,1.8,32
2015/1/11,13:00:00,3,���k��,0.3,2.9,46.5,0,0.31,12,��,2,13
2015/1/11,14:00:00,12,��,0.7,0.1,55.5,0,0.18,12,��,2.5,34
2015/1/11,15:00:00,11,���쐼,2.4,0.4,56.3,0,0.11,11,���쐼,2.8,54
2015/1/11,16:00:00,11,���쐼,0.8,-1.5,60.5,0,0.05,11,���쐼,3.6,34
2015/1/11,17:00:00,13,���k��,3.2,-0.8,56.9,0,0.01,10,�쐼,5.2,31
2015/1/11,18:00:00,15,�k�k��,0.7,-2.7,69.2,0,0,12,��,4.3,3
2015/1/11,19:00:00,13,���k��,1.6,-5.6,75.7,0,0,12,��,2.8,40
2015/1/11,20:00:00,12,��,2,-5.2,75.1,0,0,10,�쐼,2.5,44
2015/1/11,21:00:00,12,��,2.2,-7.3,86.1,0,0,13,���k��,3.6,21
2015/1/11,22:00:00,13,���k��,2.7,-4.8,78.4,0,0,5,���쓌,3.9,43
2015/1/11,23:00:00,13,���k��,2.5,-4.4,76,0,0,14,�k��,3.9,10
2015/1/11,0:00:00,5,���쓌,0.7,-4.8,79.6,0,0,11,���쐼,3.4,22
2015/1/12,1:00:00,13,���k��,2.1,-4.9,80.5,0,0,9,��쐼,3,52
2015/1/12,2:00:00,12,��,1.5,-5.3,82.4,0,0,12,��,3.1,28
2015/1/12,3:00:00,13,���k��,3.3,-5,82.2,0,0,13,���k��,5.7,52
2015/1/12,4:00:00,13,���k��,4.2,-3.7,80.3,0,0,13,���k��,6.4,33
2015/1/12,5:00:00,14,�k��,2.6,-3.8,80.9,0,0,12,��,6.7,8
2015/1/12,6:00:00,14,�k��,3.5,-4,81.2,0,0,13,���k��,5.5,59
2015/1/12,7:00:00,13,���k��,3.6,-3.6,79.1,0,0.01,13,���k��,6.4,14
2015/1/12,8:00:00,14,�k��,2.6,-1.3,70.5,0,0.09,14,�k��,5.8,28
2015/1/12,9:00:00,14,�k��,2.8,-0.9,69.6,0,0.13,14,�k��,6.4,53
2015/1/12,10:00:00,14,�k��,2.5,1,61.4,0,0.28,13,���k��,5.8,8
2015/1/12,11:00:00,15,�k�k��,2.6,2.4,53.5,0,0.43,16,�k,6.3,21
2015/1/12,12:00:00,15,�k�k��,4.4,3.5,46.4,0,0.54,14,�k��,10.1,57
2015/1/12,13:00:00,15,�k�k��,4,2.4,54.7,0,0.34,1,�k�k��,8.6,7
2015/1/12,14:00:00,15,�k�k��,5.1,2.1,51.8,0,0.25,14,�k��,11.7,55
2015/1/12,15:00:00,15,�k�k��,5.8,1.8,49.9,0,0.16,12,��,11.9,45
2015/1/12,16:00:00,15,�k�k��,8.2,1.6,48.3,0,0.05,14,�k��,15.1,51
2015/1/12,17:00:00,14,�k��,6.1,1.5,49.7,0,0.01,1,�k�k��,16.2,28
2015/1/12,18:00:00,16,�k,4.5,0.2,57.7,0,0,12,��,9.1,3
2015/1/12,19:00:00,15,�k�k��,3.2,-0.5,63.8,0,0,15,�k�k��,7.6,25
2015/1/12,20:00:00,16,�k,2.5,-1.6,67.5,0,0,15,�k�k��,6.3,4
2015/1/12,21:00:00,2,�k��,1.1,-4.8,79,0,0,2,�k��,3.2,10
2015/1/12,22:00:00,12,��,1.6,-6.5,88,0,0,11,���쐼,2.2,43
2015/1/12,23:00:00,13,���k��,1.7,-7.3,83.1,0,0,1,�k�k��,2.7,51
2015/1/12,0:00:00,13,���k��,2.2,-5.7,80.7,0,0,12,��,4.5,28
2015/1/13,1:00:00,12,��,1.3,-8.2,85.3,0,0,12,��,3.8,26
2015/1/13,2:00:00,10,�쐼,2.2,-7,82.4,0,0,12,��,3.4,28
2015/1/13,3:00:00,12,��,2.5,-7.3,79.8,0,0,11,���쐼,4,23
2015/1/13,4:00:00,10,�쐼,0.9,-8.7,87.2,0,0,9,��쐼,3.7,3
2015/1/13,5:00:00,11,���쐼,1.4,-9.8,90.7,0,0,12,��,2.5,46
2015/1/13,6:00:00,11,���쐼,1.8,-10.3,90.3,0,0,11,���쐼,2.8,42
2015/1/13,7:00:00,12,��,2.6,-10.1,86.9,0,0.01,12,��,3.7,47
2015/1/13,8:00:00,13,���k��,2.2,-9,82.2,0,0.06,12,��,4.1,40
2015/1/13,9:00:00,12,��,0.6,-4.9,68.7,0,0.22,13,���k��,3.5,2
2015/1/13,10:00:00,13,���k��,1.5,-1.9,57.9,0,0.41,4,��,3.9,14
2015/1/13,11:00:00,7,�É�,0.2,0.6,54,0,0.51,2,�k��,2.4,19
2015/1/13,12:00:00,8,��,1.6,1.4,51.3,0,0.55,7,��쓌,3.2,54
2015/1/13,13:00:00,11,���쐼,1.8,1.6,51.7,0,0.52,12,��,4.3,48
2015/1/13,14:00:00,11,���쐼,1.6,1.6,52.7,0,0.44,8,��,4.6,17
2015/1/13,15:00:00,8,��,2.1,1.2,61.2,0,0.29,8,��,4.1,42
2015/1/13,16:00:00,9,��쐼,1.8,0.1,69.7,0,0.12,9,��쐼,3.5,50
2015/1/13,17:00:00,16,�É�,0.2,-3.1,82,0,0.01,10,�쐼,2.4,11
2015/1/13,18:00:00,13,���k��,1.1,-5.2,88.9,0,0,12,��,1.9,37
2015/1/13,19:00:00,12,��,2.2,-7,92.7,0,0,12,��,2.8,56
2015/1/13,20:00:00,12,��,1.7,-8.1,91,0,0,12,��,2.8,1
2015/1/13,21:00:00,12,��,2.2,-8.7,93,0,0,12,��,2.7,0
2015/1/13,22:00:00,12,��,2.5,-9.4,89.4,0,0,12,��,3.2,51
2015/1/13,23:00:00,13,���k��,1.1,-8.8,90,0,0,13,���k��,2.2,45
2015/1/13,0:00:00,13,���k��,2,-8.9,89.8,0,0,12,��,3.1,59
2015/1/14,1:00:00,13,���k��,3.1,-8.7,89,0,0,13,���k��,4.1,52
2015/1/14,2:00:00,12,��,1.9,-9.4,90,0,0,13,���k��,3.8,31
2015/1/14,3:00:00,12,��,2.3,-9.3,89.4,0,0,13,���k��,4.2,11
2015/1/14,4:00:00,13,���k��,2.6,-10,90.5,0,0,14,�k��,4,22
2015/1/14,5:00:00,14,�k��,2.5,-9.8,89.5,0,0,13,���k��,3.7,24
2015/1/14,6:00:00,13,���k��,2.7,-10.6,90,0,0,13,���k��,4.5,6
2015/1/14,7:00:00,12,��,3.5,-11.5,90,0,0.01,10,�쐼,4.1,17
2015/1/14,8:00:00,12,��,2.7,-10.5,86.2,0,0.1,12,��,4.2,28
2015/1/14,9:00:00,12,��,2.3,-6.9,77.9,0,0.27,11,���쐼,3.5,33
2015/1/14,10:00:00,12,��,1.8,-2.7,70.1,0,0.42,12,��,3.3,16
2015/1/14,11:00:00,9,��쐼,1.9,1,62.1,0,0.51,11,���쐼,3.2,31
2015/1/14,12:00:00,10,�쐼,1.6,1.9,64.7,0,0.54,10,�쐼,3.9,22
2015/1/14,13:00:00,9,��쐼,0.9,2.9,57.2,0,0.52,10,�쐼,2.9,12
2015/1/14,14:00:00,10,�쐼,1.2,2.8,53,0,0.43,11,���쐼,2.8,30
2015/1/14,15:00:00,9,��쐼,1.9,2.9,52.2,0,0.28,11,���쐼,3.2,48
2015/1/14,16:00:00,10,�쐼,2.4,1,60.6,0,0.11,10,�쐼,3.4,5
2015/1/14,17:00:00,5,���쓌,0.5,-3,76.4,0,0.01,10,�쐼,2.9,0
2015/1/14,18:00:00,12,��,0.9,-5.8,84.7,0,0,13,���k��,7.4,24
2015/1/14,19:00:00,14,�k��,1,-4,83.6,0,0,12,��,2.2,23
2015/1/14,20:00:00,13,���k��,0.6,-6.3,86.7,0,0,12,��,23.5,28
2015/1/14,21:00:00,13,���k��,1,-7.1,88.5,0,0,12,��,2.2,37
2015/1/14,22:00:00,12,��,1.6,-7.9,91.1,0,0,12,��,2.7,34
2015/1/14,23:00:00,13,���k��,2.5,-7.7,91.7,0,0,13,���k��,3.1,51
2015/1/14,0:00:00,13,���k��,1.9,-8.5,89.1,0,0,12,��,2.9,44
2015/1/15,1:00:00,14,�k��,2.2,-8.6,90.1,0,0,13,���k��,3.1,41
2015/1/15,2:00:00,13,���k��,2.5,-9,91.9,0,0,13,���k��,3.3,8
2015/1/15,3:00:00,13,���k��,1.3,-9.6,92.9,0,0,3,���k��,3.3,28
2015/1/15,4:00:00,14,�k��,2.4,-9.3,93.2,0,0,13,���k��,2.8,53
2015/1/15,5:00:00,12,��,1.6,-9.8,94.2,0,0,11,���쐼,2.9,37
2015/1/15,6:00:00,12,��,1.7,-10.1,93.6,0,0,12,��,2.9,6
2015/1/15,7:00:00,13,���k��,1.4,-8.4,94.4,0,0.01,12,��,2.5,40
2015/1/15,8:00:00,14,�k��,2,-5.9,93.2,0,0.04,9,��쐼,2.4,56
2015/1/15,9:00:00,13,���k��,2.3,-3.8,89.2,0,0.11,9,��쐼,3.3,56
2015/1/15,10:00:00,13,���k��,1.6,-3.1,86.1,0,0.14,14,�k��,2.9,2
2015/1/15,11:00:00,13,���k��,1.8,-2,84.5,0,0.23,14,�k��,3.3,42
2015/1/15,12:00:00,2,�k��,1.2,-0.3,86.1,0,0.34,14,�k��,2.3,4
2015/1/15,13:00:00,2,�k��,1.9,0.5,82.8,0,0.38,2,�k��,3.1,56
2015/1/15,14:00:00,3,���k��,2.1,-0.4,88.7,0,0.19,3,���k��,3.5,38
2015/1/15,15:00:00,3,���k��,1.7,-0.2,92,0,0.11,3,���k��,2.7,4
2015/1/15,16:00:00,2,�k��,1.5,-0.9,92.5,0,0.07,3,���k��,2.9,21
2015/1/15,17:00:00,16,�k,1.3,-0.1,93,0,0.01,3,���k��,2.7,0
2015/1/15,18:00:00,14,�k��,1.4,-0.7,94.9,0,0,2,�k��,2.3,59
2015/1/15,19:00:00,13,���k��,1.9,-1.2,94.5,0,0,14,�k��,4.9,27
2015/1/15,20:00:00,14,�k��,2.3,-1.3,93.9,0,0,13,���k��,4.4,16
2015/1/15,21:00:00,13,���k��,1.9,-1.9,92.7,0,0,14,�k��,3.2,44
2015/1/15,22:00:00,14,�k��,1.5,-1.8,93.4,0,0,14,�k��,2.6,28
2015/1/15,23:00:00,14,�k��,1.7,-2.4,94.3,0,0,14,�k��,3.6,26
2015/1/15,0:00:00,14,�k��,1.5,-2.3,91.2,0,0,14,�k��,4.1,39
2015/1/16,1:00:00,13,���k��,3.5,-2.1,88.8,0,0,13,���k��,5.7,59
2015/1/16,2:00:00,14,�k��,2.3,-2.2,89.4,0,0,1,�k�k��,5.9,5
2015/1/16,3:00:00,13,���k��,2.7,-2.3,86.6,0,0,11,���쐼,5.9,14
2015/1/16,4:00:00,13,���k��,3.3,-2.9,85.4,0,0,14,�k��,5.6,23
2015/1/16,5:00:00,13,���k��,1.1,-4.8,91.1,0,0,14,�k��,3.8,2
2015/1/16,6:00:00,15,�k�k��,0.4,-6.5,91.4,0,0,10,�쐼,3.1,27
2015/1/16,7:00:00,12,��,0.9,-8.3,97.4,0,0.01,15,�k�k��,2.9,12
2015/1/16,8:00:00,12,��,1.5,-7.9,96.5,0,0.07,11,���쐼,2.2,3
2015/1/16,9:00:00,13,���k��,0.8,-4.8,77.1,0,0.25,14,�k��,2.9,43
2015/1/16,10:00:00,12,��,2,-2.8,70.9,0,0.39,12,��,2.6,59
2015/1/16,11:00:00,5,�É�,0.2,0.2,65.5,0,0.44,12,��,2.5,0
2015/1/16,12:00:00,7,��쓌,1.7,-0.3,64.1,0.5,0.53,7,��쓌,2.5,55
2015/1/16,13:00:00,6,�쓌,2.4,0,70.2,0,0.51,6,�쓌,4.7,59
2015/1/16,14:00:00,7,��쓌,2.1,-0.4,72,0,0.42,6,�쓌,4.8,0
2015/1/16,15:00:00,6,�쓌,2,-0.8,77.7,0,0.2,7,��쓌,3.5,14
2015/1/16,16:00:00,7,��쓌,0.8,-1.3,81.5,0,0.08,6,�쓌,3.7,11
2015/1/16,17:00:00,6,�쓌,1.6,-1,80.5,0,0.01,6,�쓌,3.1,49
2015/1/16,18:00:00,5,���쓌,1.6,-1.2,82.8,0,0,5,���쓌,3.8,13
2015/1/16,19:00:00,1,�k�k��,1,-4.8,88,0,0,5,���쓌,2.5,3
2015/1/16,20:00:00,13,���k��,1.7,-4.7,96.1,0,0,14,�k��,3.1,59
2015/1/16,21:00:00,12,��,2,-7.7,92.5,0,0,14,�k��,2.9,0
2015/1/16,22:00:00,13,���k��,1.8,-8.1,96.3,0,0,12,��,3.7,15
2015/1/16,23:00:00,13,���k��,1.7,-8.5,95.8,0,0,14,�k��,2.5,23
2015/1/16,0:00:00,13,���k��,1.4,-8,95.3,0,0,12,��,3.2,45
2015/1/17,1:00:00,13,���k��,2.2,-6,95.9,0,0,13,���k��,3.5,0
2015/1/17,2:00:00,14,�k��,2.4,-5.5,89.7,0,0,14,�k��,4.1,0
2015/1/17,3:00:00,13,���k��,2,-6.1,90.9,0,0,14,�k��,4.5,3
2015/1/17,4:00:00,13,���k��,2.2,-6.3,90,0,0,10,�쐼,4.1,36
2015/1/17,5:00:00,14,�k��,2,-5.8,92.8,0,0,14,�k��,4.1,40
2015/1/17,6:00:00,13,���k��,2.5,-5.7,95,0,0,12,��,4.1,7
2015/1/17,7:00:00,13,���k��,3,-5.2,96,0,0,1,�k�k��,4.5,59
2015/1/17,8:00:00,14,�k��,3.4,-4.7,95.9,0,0.02,13,���k��,6.6,29
2015/1/17,9:00:00,13,���k��,3.4,-4.7,95.4,0,0.05,2,�k��,8.2,34
2015/1/17,10:00:00,13,���k��,5,-4.8,95.9,0,0.06,13,���k��,7.1,46
2015/1/17,11:00:00,13,���k��,3.6,-3.6,89.5,0,0.2,16,�k,6.3,5
2015/1/17,12:00:00,14,�k��,2.7,-2.3,84.2,0,0.32,3,���k��,5.6,43
2015/1/17,13:00:00,15,�k�k��,3.7,-0.9,78,0,0.52,14,�k��,7.9,34
2015/1/17,14:00:00,14,�k��,5.6,-0.4,57.5,0,0.4,14,�k��,11.4,55
2015/1/17,15:00:00,14,�k��,4.9,-0.7,54.5,0.5,0.17,14,�k��,11.8,23